Flag for India Weather past 2 weeks in Fatehpur, Uttar Pradesh, India

Now
86 °F

Passing clouds.


Feels Like: 102 °F
Forecast: 74 / 94 °F
Wind: No wind

Location: Lucknow / Amausi

Current Time: Sep 19, 2014 at 8:17:59 PM

Latest Report: Sep 19, 2014 at 7:30 PM


Visibility: 3 mi

Pressure: 29.62 "Hg

Humidity: 84%

Dew point: 81 °F

Location of FatehpurLocation

Historic Weather in Fatehpur — Graph

°F

Fatehpur temperature yesterday

Maximum temperature yesterday: 100 °F (at 1:30 PM)
Minimum temperature yesterday: 79 °F (at 6:00 AM)
Average temperature yesterday: 89 °F

Past Weeks' High & Low Weather Summary

 TemperatureHumidityPressure
High104 °F (Sep 5, 3:00 PM)100% (Sep 6, 5:00 AM)29.74 "Hg (Sep 6, 5:00 AM)
Low75 °F (Sep 12, 10:30 AM)48% (Sep 5, 3:00 PM)29.50 "Hg (Sep 5, 3:30 PM)
Average87 °F81%29.62 "Hg
* Reported Sep 4 6:30 PM — Sep 19 7:00 PM, Fatehpur, Weather by CustomWeather, © 2014

Note: Actual official high and low records may vary slightly from our data, if they occured in-between our weather recording intervals... More about our weather records

Advertising

Fatehpur weather history for previous 24 hours

 ConditionsComfort  
Time TempWeatherWind HumidityBarometerVisibility
7:00 PM
Sep 19
88 °FPassing clouds.No wind79%29.59 "Hg3 mi
5:30 PM97 °FScattered clouds.No wind60%29.56 "Hg3 mi
5:00 PM99 °FScattered clouds.No wind57%29.56 "Hg3 mi
4:30 PM100 °FScattered clouds.No wind53%29.56 "Hg3 mi
4:00 PM100 °FScattered clouds.6 mph50%29.56 "Hg3 mi
3:30 PM102 °FScattered clouds.6 mph51%29.56 "Hg3 mi
3:00 PM102 °FScattered clouds.7 mph51%29.59 "Hg3 mi
2:30 PM102 °FScattered clouds.5 mph51%29.62 "Hg3 mi
2:00 PM102 °FScattered clouds.5 mph51%29.62 "Hg3 mi
1:30 PM102 °FScattered clouds.5 mph51%29.62 "Hg3 mi
1:00 PM102 °FScattered clouds.6 mph51%29.65 "Hg3 mi
12:30 PM102 °FScattered clouds.5 mph51%29.65 "Hg3 mi
11:30 AM100 °FScattered clouds.5 mph57%29.68 "Hg3 mi
11:00 AM102 °FScattered clouds.2 mph54%29.68 "Hg3 mi
10:30 AM99 °FHaze.3 mph57%29.71 "Hg3 mi
10:00 AM99 °FHaze.2 mph57%29.71 "Hg2 mi
9:30 AM99 °FHaze.2 mph57%29.68 "Hg2 mi
9:00 AM95 °FHaze.2 mph63%29.68 "Hg2 mi
8:30 AM93 °FHaze.3 mph67%29.68 "Hg2 mi
7:30 AM86 °FFog.2 mph79%29.68 "Hg1 mi
7:00 AM82 °FFog.No wind89%29.68 "Hg1 mi
6:30 AM81 °FFog.No wind94%29.68 "Hg1 mi
6:00 AM81 °FFog.No wind94%29.65 "Hg1 mi
5:30 AM81 °FHaze.No wind94%29.65 "Hg2 mi
4:00 AM82 °FHaze.No wind89%29.65 "Hg2 mi
3:00 AM82 °FHaze.No wind74%29.65 "Hg2 mi
1:00 AM82 °FHaze.No wind89%29.68 "Hg2 mi
12:00 AM82 °FHaze.No wind89%29.68 "Hg2 mi
11:00 PM
Sep 18
84 °FHaze.No wind89%29.68 "Hg2 mi
10:00 PM84 °FHaze.No wind89%29.68 "Hg2 mi
9:00 PM84 °FHaze.No wind89%29.68 "Hg2 mi
8:30 PM86 °FHaze.No wind84%29.65 "Hg2 mi
8:00 PM86 °FPassing clouds.2 mph84%29.65 "Hg2 mi
Weather by CustomWeather, © 2014

See weather overviewHow to use our weather pages